#timestamp,LO_Frequency,Hit,StdDev 
1515456015.0,286046996.6,Y
1515456015.9,286046996.6,P
1515456035.8,286047000.8,N
1515456055.6,286046999.5,N
1515456075.4,286047000.8,N
1515456095.3,286047001.2,N
1515456115.1,286047000.4,N
1515456135.8,286046999.7,N
1515456155.7,286047002.0,N
1515456175.5,286047002.0,N
1515456195.4,286046999.9,N
1515456215.2,286047002.8,N
1515456235.0,286047000.1,N
1515456235.9,286047000.1,N
1515456255.8,286047001.0,N
1515456275.6,286046998.1,N
1515456295.4,286047000.6,N
1515456315.3,286047002.6,N
1515456335.1,286047002.1,N
1515456355.9,286047000.2,N
1515456375.7,286047002.2,N
1515456395.5,286047002.6,N
1515456415.4,286047004.0,N
1515456435.2,286047003.2,N
1515456455.0,286047003.8,N
1515456455.9,286047003.8,N
1515456475.8,286047001.7,N
1515456495.6,286047001.5,N
1515456515.5,286047001.4,N
1515456535.3,286047002.6,N
1515456555.1,286046999.9,N
1515456575.9,286047000.9,N
1515456595.7,286047000.8,N
1515456615.5,286046998.1,N
1515456635.4,286047000.3,N
1515456655.2,286046999.8,N
1515456675.1,286047000.8,N
1515456676.0,286047000.8,N
1515456695.8,286046999.0,N
1515456715.6,286046998.4,N
1515456735.5,286046996.6,N
1515456755.3,286046999.2,N
1515456775.2,286047000.8,N
1515456795.9,286047001.0,N
1515456815.7,286046999.8,N
1515456835.6,286047002.3,N
1515456855.4,286047002.3,N
1515456875.2,286047002.0,N
1515456895.1,286047003.5,N
1515456896.0,286047003.5,N
1515456915.8,286047002.9,N
1515456935.7,286047003.4,N
1515456955.5,286047004.2,N
1515456975.3,286047003.9,N
1515456995.2,286047005.7,N
1515457015.0,286047005.6,N
1515457015.9,286047005.6,N
1515457035.8,286047003.1,N
1515457055.6,286047003.6,N
1515457075.4,286047003.1,N
1515457095.3,286047003.3,N
1515457115.1,286047003.7,N
1515457135.8,286047001.5,N
1515457155.7,286047001.6,N
1515457175.7,286047002.5,N
1515457195.5,286047002.0,N
1515457215.4,286047002.4,N
1515457235.2,286046999.9,N
1515457255.1,286046999.8,N
1515457256.0,286046999.8,N
1515457275.8,286047000.2,N
1515457295.6,286047001.1,N
1515457315.5,286046998.8,N
1515457335.3,286046998.3,N
1515457355.1,286046999.3,N
1515457375.9,286046998.1,N
1515457395.7,286046998.7,N
1515457415.6,286046997.3,N
1515457435.4,286046996.9,N
1515457455.2,286046996.8,N
1515457475.1,286046997.6,N
1515457476.0,286046997.6,N
1515457495.8,286046998.0,N
1515457515.6,286046995.4,N
1515457535.5,286046995.0,N
1515457555.3,286046995.4,N
1515457575.2,286046997.8,N
1515457595.9,286046996.1,N
1515457615.7,286046995.0,N
1515457635.6,286046995.5,N
1515457655.4,286046995.7,N
1515457675.2,286046995.7,N
1515457695.1,286046995.7,N
1515457715.7,286046995.6,N
1515457735.6,286046993.3,Y
1515457755.4,286046997.4,P
1515457775.2,286046996.0,P
1515457795.3,286046995.6,P
1515457815.2,286046995.9,Y
1515457835.0,286047001.0,P
1515457835.9,286047001.0,N
1515457855.7,286047000.5,N
1515457875.6,286047001.2,N
1515457895.4,286047001.2,N
1515457915.3,286047000.3,N
1515457935.1,286046998.4,N
1515457936.0,286046998.4,N
1515457955.8,286046998.2,N
1515457975.7,286046998.8,N
1515457995.5,286046999.4,N
1515458015.4,286046997.2,N
1515458035.2,286046999.2,N
1515458055.0,286046997.0,N
1515458055.9,286046997.0,N
1515458075.8,286046997.7,N
1515458095.6,286046997.7,N
1515458115.4,286046997.1,N
1515458135.3,286046999.5,N
1515458155.1,286046996.8,N
1515458175.9,286046997.8,N
1515458195.7,286046995.3,Y
1515458215.5,286046996.8,P
1515458235.4,286046996.8,P
1515458255.2,286046999.3,N
1515458275.0,286046998.8,N
1515458276.0,286046998.8,N
1515458295.8,286046998.9,N
1515458315.6,286046999.4,N
1515458335.5,286046996.5,Y
1515458355.2,286046998.9,P
1515458375.0,286047000.5,N
1515458375.9,286047000.5,N
1515458395.8,286047000.3,N
1515458415.5,286047000.6,N
1515458435.3,286047001.2,N
1515458455.2,286047001.2,N
1515458475.9,286046996.6,Y
1515458495.7,286046999.6,P
1515458515.6,286046998.5,P
1515458535.4,286046999.2,N
1515458555.3,286046999.4,N
1515458575.1,286046996.8,Y
1515458595.9,286046999.1,P
1515458615.7,286046996.5,P
1515458635.5,286046999.5,N
1515458655.4,286046996.5,N
1515458675.2,286046997.5,N
1515458695.0,286046994.9,Y
1515458695.9,286046994.9,P
1515458715.8,286046999.6,N
1515458735.6,286046995.1,N
1515458755.5,286046997.3,N
1515458775.3,286046999.4,N
1515458795.1,286046996.9,N
1515458815.9,286046999.3,N
1515458835.7,286046999.1,N
1515458855.5,286046999.5,N
1515458875.4,286046999.1,N
1515458895.2,286046998.5,N
1515458915.1,286046998.8,N
1515458916.0,286046998.8,N
1515458935.8,286046998.3,N
1515458955.6,286046996.6,N
1515458975.5,286046998.4,N
1515458995.3,286046996.7,N
1515459015.1,286046999.6,N
1515459016.0,286046999.6,N
1515459035.8,286047001.2,N
1515459055.7,286046999.1,N
1515459075.5,286046998.8,N
1515459095.3,286046998.7,N
1515459115.2,286046997.0,N
1515459135.0,286046999.1,N
1515459135.9,286046999.1,N
1515459155.8,286047000.9,N
1515459175.6,286046998.5,N
1515459195.5,286046998.2,N
1515459215.3,286046998.4,N
1515459235.1,286046998.8,N
1515459255.9,286046999.1,N
1515459275.7,286046996.5,N
1515459295.5,286046999.4,N
1515459315.4,286046999.1,N
1515459335.2,286046999.1,N
1515459355.1,286046996.8,Y
1515459356.0,286046996.8,P
1515459375.8,286046998.6,N
1515459395.6,286046999.1,N
1515459415.5,286047000.9,N
1515459435.3,286047000.5,N
1515459455.1,286047001.2,N
1515459475.9,286047001.1,N
1515459495.7,286046998.6,N
1515459515.6,286047000.8,N
1515459535.4,286047000.5,N
1515459555.2,286047000.2,N
1515459575.1,286047000.6,N
1515459576.0,286047000.6,N
1515459595.8,286047000.8,N
